This demonstration page uses our WeatherBlox Daily Observations layout. Learn more.

Left ArrowRight Arrow

40.92945, -100.16068

Hourly Observations for September 24, 2019

Temp ( °F °C ) Dew Point ( °F °C ) Humidity (%) Winds ( mph kmh ) Pressure ( in mb ) Visibility ( mi km ) Precip ( " mm )
12:15 am 00:15 Clear 66 18.7 54 12.3 67 67 SSE 9 15 29.87 1012 10 16 0.00 0.00
12:35 am 00:35 Clear 67 19.6 55 12.7 65 65 S 10 17 29.87 1011 10 16 0.00 0.00
12:55 am 00:55 Clear 67 19.7 56 13.5 68 68 S 10 17 29.86 1011 10 16 0.00 0.00
1:15 am 01:15 Clear 67 19.6 57 14.1 71 71 S 8 13 29.86 1011 10 16 0.00 0.00
1:35 am 01:35 Clear 67 19.6 58 14.5 73 73 SSW 10 17 29.86 1011 10 16 0.00 0.00
1:55 am 01:55 Clear 67 19.5 58 14.5 73 73 SSW 12 19 29.86 1011 10 16 0.00 0.00
2:15 am 02:15 Clear 66 19.1 58 14.5 75 75 SSW 8 13 29.86 1011 10 16 0.00 0.00
2:35 am 02:35 Clear 65 18.6 58 14.7 78 78 S 8 13 29.86 1011 10 16 0.00 0.00
2:55 am 02:55 Clear 65 18.4 59 15 81 81 SSW 7 11 29.86 1011 10 16 0.00 0.00
3:15 am 03:15 Clear 65 18.1 59 15 82 82 SSW 8 13 29.86 1011 10 16 0.00 0.00
3:35 am 03:35 Clear 64 18 59 15.2 84 84 S 7 11 29.85 1011 10 16 0.00 0.00
3:55 am 03:55 Clear 64 18 60 15.6 86 86 S 7 11 29.85 1011 10 16 0.00 0.00
4:15 am 04:15 Clear 64 17.9 60 15.7 87 87 SSW 5 7 29.84 1011 10 16 0.00 0.00
4:35 am 04:35 Clear 64 17.8 61 16 89 89 SSW 5 7 29.83 1010 10 16 0.00 0.00
4:55 am 04:55 Clear 64 17.5 61 16.1 92 92 S 7 11 29.83 1010 10 16 0.00 0.00
5:15 am 05:15 Clear 64 17.8 62 16.5 92 92 SSW 6 9 29.83 1010 10 16 0.00 0.00
5:35 am 05:35 Clear 65 18.6 63 17.2 92 92 SSW 7 11 29.81 1010 10 16 0.00 0.00
5:55 am 05:55 Clear 64 18 63 17 94 94 Calm 29.82 1010 10 16 0.00 0.00
6:15 am 06:15 Clear 64 18 63 17 94 94 Calm 29.82 1010 10 16 0.00 0.00
6:35 am 06:35 Clear 64 17.6 63 17 96 96 Calm 29.82 1010 10 16 0.00 0.00
6:55 am 06:55 Clear 65 18.2 63 17.4 95 95 Calm 29.82 1010 10 16 0.00 0.00
7:15 am 07:15 Clear 64 17.7 63 17 96 96 SSW 3 6 29.82 1010 10 16 0.00 0.00
7:35 am 07:35 Sunny 63 17.2 62 16.8 98 98 Calm 29.82 1010 7 11 0.00 0.00
7:55 am 07:55 Partly Cloudy with Mist and Fog 63 17.3 63 17.2 99 99 Calm 29.82 1010 5 8 0.00 0.00
8:15 am 08:15 Mostly Cloudy with Mist and Fog 65 18.1 64 17.8 98 98 S 7 11 29.81 1009 5 8 0.00 0.00
8:35 am 08:35 Cloudy 67 19.3 66 18.7 96 96 S 5 7 29.79 1009 7 11 0.00 0.00
8:55 am 08:55 Cloudy 68 20 67 19.2 95 95 SSW 6 9 29.78 1009 7 11 0.00 0.00
9:15 am 09:15 Cloudy 69 20.3 67 19.3 94 94 SW 12 19 29.79 1009 7 11 0.00 0.00
9:35 am 09:35 Cloudy 69 20.6 67 19.4 93 93 WSW 7 11 29.79 1009 7 11 0.00 0.00
9:55 am 09:55 Cloudy 70 21.1 67 19.5 91 91 WSW 7 11 29.78 1009 7 11 0.00 0.00
10:15 am 10:15 Cloudy 71 21.9 67 19.3 85 85 W 8 13 29.78 1008 10 16 0.00 0.00
10:35 am 10:35 Mostly Cloudy 72 22.4 67 19.2 82 82 WSW 5 7 29.76 1008 10 16 0.00 0.00
10:55 am 10:55 Mostly Cloudy 73 22.8 66 19.1 80 80 WSW 8 13 29.76 1008 10 16 0.00 0.00
11:15 am 11:15 Partly Cloudy 75 23.8 66 19.1 75 75 W 6 9 29.74 1007 10 16 0.00 0.00
11:35 am 11:35 Sunny 76 24.3 66 19.1 73 73 WSW 5 7 29.73 1007 10 16 0.00 0.00
11:55 am 11:55 Sunny 77 24.9 66 18.8 69 69 SW 6 9 29.72 1006 10 16 0.00 0.00
12:15 pm 12:15 Sunny 78 25.8 66 19 66 66 WSW 6 9 29.70 1006 10 16 0.00 0.00
12:35 pm 12:35 Sunny 80 26.5 67 19.5 65 65 SW 8 13 29.69 1005 10 16 0.00 0.00
12:55 pm 12:55 Sunny 81 27.3 66 19.1 61 61 WSW 6 9 29.68 1005 10 16 0.00 0.00
1:15 pm 13:15 Sunny 82 27.5 66 18.8 59 59 WSW 7 11 29.68 1005 10 16 0.00 0.00
1:35 pm 13:35 Sunny 83 28.2 65 18.2 55 55 WSW 6 9 29.65 1004 10 16 0.00 0.00
1:55 pm 13:55 Sunny 83 28.4 65 18.4 55 55 WSW 7 11 29.64 1004 10 16 0.00 0.00
2:15 pm 14:15 Sunny 84 29 62 16.6 47 47 NW 6 9 29.63 1003 10 16 0.00 0.00
2:35 pm 14:35 Sunny 85 29.2 61 16 45 45 W 10 17 29.63 1003 10 16 0.00 0.00
2:55 pm 14:55 Sunny 85 29.6 60 15.5 42 42 W 5 7 29.61 1003 10 16 0.00 0.00
3:15 pm 15:15 Sunny 86 29.8 58 14.5 39 39 WNW 7 11 29.61 1003 10 16 0.00 0.00
3:35 pm 15:35 Sunny 87 30.5 56 13.6 36 36 NW 7 11 29.60 1002 10 16 0.00 0.00
3:55 pm 15:55 Sunny 87 30.7 53 11.8 31 31 W 5 7 29.58 1002 10 16 0.00 0.00
4:15 pm 16:15 Sunny 88 31.1 53 11.6 30 30 WNW 5 7 29.57 1001 10 16 0.00 0.00
4:35 pm 16:35 Sunny 88 31.3 53 11.7 30 30 WSW 6 9 29.56 1001 10 16 0.00 0.00
4:55 pm 16:55 Sunny 88 31.1 51 10.5 28 28 W 5 7 29.56 1001 10 16 0.00 0.00
5:15 pm 17:15 Sunny 88 31.1 51 10.6 28 28 W 6 9 29.56 1001 10 16 0.00 0.00
5:35 pm 17:35 Sunny 88 31.1 52 10.9 29 29 W 9 15 29.57 1001 7 11 0.00 0.00
5:55 pm 17:55 Sunny 87 30.6 49 9.6 27 27 NW 8 13 29.58 1002 10 16 0.00 0.00
6:15 pm 18:15 Sunny 86 30.2 50 9.9 28 28 NNW 6 9 29.58 1002 7 11 0.00 0.00
6:35 pm 18:35 Sunny 84 29.1 51 10.5 31 31 NNW 8 13 29.60 1002 10 16 0.00 0.00
6:55 pm 18:55 Sunny 81 27 52 11.2 37 37 N 13 20 29.61 1003 10 16 0.00 0.00
7:15 pm 19:15 Sunny 77 24.8 53 11.5 43 43 N 8 13 29.63 1003 7 11 0.00 0.00
7:35 pm 19:35 Clear 73 22.8 54 12.1 51 51 N 6 9 29.66 1004 7 11 0.00 0.00
7:55 pm 19:55 Hazy 69 20.6 55 12.6 60 60 N 3 6 29.68 1005 5 8 0.00 0.00
8:15 pm 20:15 Clear 67 19.3 55 12.8 66 66 N 5 7 29.70 1006 10 16 0.00 0.00
8:35 pm 20:35 Clear 65 18.2 56 13.4 74 74 N 3 6 29.72 1006 10 16 0.00 0.00
8:55 pm 20:55 Clear 64 17.7 55 13 74 74 Calm 29.72 1007 10 16 0.00 0.00
9:15 pm 21:15 Clear 62 16.6 55 12.5 77 77 Calm 29.74 1007 10 16 0.00 0.00
9:35 pm 21:35 Clear 61 16.2 55 12.6 79 79 Calm 29.76 1008 10 16 0.00 0.00
9:55 pm 21:55 Clear 62 16.4 53 11.9 75 75 Calm 29.75 1008 10 16 0.00 0.00
10:15 pm 22:15 Clear 60 15.4 53 11.6 78 78 Calm 29.77 1008 10 16 0.00 0.00
10:35 pm 22:35 Clear 59 14.8 53 11.4 80 80 SSE 3 6 29.78 1008 10 16 0.00 0.00
10:55 pm 22:55 Clear 59 14.9 53 11.7 81 81 E 3 6 29.79 1009 10 16 0.00 0.00
11:15 pm 23:15 Clear 59 15.1 52 11.2 78 78 ESE 5 7 29.79 1009 10 16 0.00 0.00
11:35 pm 23:35 Clear 59 14.9 52 11 78 78 Calm 29.79 1009 10 16 0.00 0.00
11:55 pm 23:55 Clear 57 14 52 11 82 82 Calm 29.80 1009 10 16 0.00 0.00

Powered by AerisWeather